Regional Weather Roundup
Issued by NWS Upton, NY

Current Version | Previous Version | Graphics & Text | Print | Product List | Glossary Off
Versions: 1 2 3 4 5 6 7 8 9 10 11 12 13 14 15 16 17 18 19 20 21 22 23 24 25 26

000
ASUS41 KOKX 200605
RWROKX

REGIONAL WEATHER ROUNDUP
NATIONAL WEATHER SERVICE NEW YORK NY
200 AM EDT SUN APR 20 2014

NOTE: "FAIR" INDICATES FEW OR NO CLOUDS BELOW 12,000 FEET WITH NO
SIGNIFICANT WEATHER AND/OR OBSTRUCTIONS TO VISIBILITY.

NYZ071-072-176-178-NJZ106-104-200700-
NEW YORK CITY METRO AREA


CITY           SKY/WX    TMP DP  RH WIND       PRES   REMARKS
CENTRAL PARK   FAIR      52  24  33 NE9G17    30.40R
LAGUARDIA APRT FAIR      51  25  36 NE12      30.37R
KENNEDY INTL   MOCLDY    52  26  36 NE13      30.37S
NEWARK/LIBERTY MOCLDY    50  28  42 N12       30.37R
TETERBORO      FAIR      52  25  35 N7        30.37R
$$

NYZ177-179-078>081-200700-
LONG ISLAND NEW YORK

CITY           SKY/WX    TMP DP  RH WIND       PRES   REMARKS
FARMINGDALE    FAIR      49  29  46 NE9       30.37R
ISLIP          FAIR      49  32  52 NE8       30.36R
SHIRLEY        FAIR      46  32  58 CALM      30.39R
WESTHAMPTON    FAIR      48  32  53 E8G22     30.40R
MONTAUK POINT    N/A     46  37  71 NE6       30.42R
$$

NYZ052-065-067-200700-
HUDSON VALLEY

CITY           SKY/WX    TMP DP  RH WIND       PRES   REMARKS
WHITE PLAINS   FAIR      48  24  39 NE9       30.37R
NEWBURGH       CLEAR     46  27  46 E12       30.41
MONTGOMERY     FAIR      41  26  55 N8        30.41R
POUGHKEEPSIE   FAIR      40  28  62 NE3       30.41R
ALBANY         MOCLDY    41  22  46 N6        30.43S
$$

NJZ001-105-106-008-010-013-015-019>022-104-200700-
NEW JERSEY

CITY           SKY/WX    TMP DP  RH WIND       PRES   REMARKS
NEWARK/LIBERTY MOCLDY    50  28  42 N12       30.37R
TETERBORO      FAIR      52  25  35 N7        30.37R
CALDWELL       FAIR      49  25  39 NE3       30.39R
MORRISTOWN     FAIR      50  25  37 N5        30.39R
SOMERVILLE     FAIR      47  26  44 NW3       30.36R
LINDEN         FAIR      54  27  35 NE8       30.39R
SUSSEX         FAIR      48  24  39 NE13      30.39R
ANDOVER          N/A     47  25  42 VRB7      30.38R
TRENTON        FAIR      49  25  39 NE8       30.35R
MILLVILLE      FAIR      44  36  73 N3        30.32F
ATLANTIC CITY  FAIR      41  35  79 N8        30.32S
WRIGHTSTOWN    FAIR      45  32  59 N5        30.33R
TOMS RIVER     FAIR      41  32  70 CALM      30.35S
BELMAR         FAIR      50  27  40 N7        30.35S
$$

PAZ047>061-062-071-200700-
EASTERN PENNSYLVANIA

CITY           SKY/WX    TMP DP  RH WIND       PRES   REMARKS
PHILADELPHIA   MOCLDY    49  37  63 E3        30.36R
ALLENTOWN      FAIR      46  24  42 CALM      30.37R
SCRANTON       FAIR      39  26  59 S7        30.38R WCI  34
$$

CTZ002-004>006-009-010-012-RIZ004-006-007-MAZ004-011-015-200700-
SOUTHERN NEW ENGLAND
 IN CT

CITY           SKY/WX    TMP DP  RH WIND       PRES   REMARKS
BRADLEY INTL   FAIR      43  25  49 NE7       30.43R
HARTFORD       FAIR      44  25  47 N7        30.43R
DANBURY        FAIR      44  26  49 NE7       30.41R
WTRBRY/OXFORD  FAIR      45  23  42 NE10G16   30.42S
BRIDGEPORT     FAIR      50  28  42 NE10      30.40R
MERIDEN        FAIR      46  25  43 N5        30.42R
NEW HAVEN      FAIR      47  28  47 NE7       30.41R
CHESTER        FAIR      46  28  49 NE6       30.41S
GROTON         FAIR      46  27  47 N9        30.41R
WILLIMANTIC    FAIR      43  25  49 N5        30.43R

 IN RI

CITY           SKY/WX    TMP DP  RH WIND       PRES   REMARKS
PROVIDENCE     FAIR      44  23  43 N9        30.42R
BLOCK ISLAND   FAIR      45  32  61 NE7       30.40R
WESTERLY       FAIR      45  26  47 N6        30.41S

 IN MA

CITY           SKY/WX    TMP DP  RH WIND       PRES   REMARKS
BOSTON         FAIR      44  24  45 N8        30.43S
WORCESTER      FAIR      39  22  50 N8        30.40S WCI  33
WESTFIELD      FAIR      42  25  50 N3        30.43R
PROVINCETOWN   FAIR      41  36  81 MISG      30.43S
NANTUCKET      FAIR      44  31  60 N14       30.39S
$$

ANZ330-335-338-340-345-350-353-355-200700-
COASTAL MARINE OBSERVATIONS


STATION/POSITION TIME  SKY/WX   TEMP    WIND        PRES    VSBY  WAVE
                                AIR SEA DIR/SP/G                  HT/PER
                 (UTC)          (F)     (DEG/KT/KT) (MB)    (MI)  (FT/S)
NY HARB ENTRANCE 0600            49 45  240/ 12/ 14 1027.3
4S FIRE IS       0500               45                N/A           3/10
23SW MTP         0600            46 43   90/ 16/ 17 1028.7          4/ 8
HUDSON CANYON    0500            45 44   50/  6/  8 1026.7          3/10
EXECUTION ROCKS  0600            49 32   20/ 12/ 16   N/A
WESTERN LI SOUND 0600            49      40/ 12/ 14   N/A           0
CENTRAL LI SOUND 0500            46 43   90/ 14/ 16   N/A           1/ 2
EASTERN LI SOUND NOT AVBL
ROBBINS REEF     0600            54      40/ 14/ 16   N/A
$$


>>>>>>>>>>>>>>>>>>>>>>>>>>>> KEY <<<<<<<<<<<<<<<<<<<<<<<<<<<
>                                                          <
>     SKY/WX - SKY CONDITION/PRESENT WEATHER               <
>     TMP    - TEMPERATURE IN FAHRENHEIT                   <
>     DP     - DEWPOINT IN FAHRENHEIT                      <
>     RH     - RELATIVE HUMIDITY IN PERCENT                <
>     WIND   - DIRECTION AND SPEED IN MPH                  <
>     PRES   - MEAN SEA LEVEL PRESSURE IN INCHES OF HG     <
>     WCI    - WIND CHILL INDEX                            <
>     VSB    - VISIBILITY IN MILES                         <
>     HX     - HEAT INDEX                                  <
>     TC     - TEMPERATURE IN CELSIUS                      <
>     VRB    - VARIABLE WIND DIRECTION                     <
>                                                          <
>>>>>>>>>>>>>>>>>>>>>>>>>>>> KEY <<<<<<<<<<<<<<<<<<<<<<<<<<<





USA.gov is the U.S. government's official web portal to all federal, state and local government web resources and services.